Tracking 19638 objects as of 19-Apr-2019
HD Live streaming from Space Station
objects crossing your sky now

DELTA 1 DEB

Track DELTA 1 DEB now!
10-day predictions


NORAD ID: 3417
Int'l Code: 1968-069D
Perigee: 1,463.7 km
Apogee: 1,566.3 km
Inclination: 101.9 °
Period: 116.2 minutes
Semi major axis: 7885 km
RCS: 0.0804 m2 (small)
Launch date: August 16, 1968
Source: United States (US)
Launch site: AIR FORCE WESTERN TEST RANGE (AFWTR)

Note: This is SATELLITE DEBRIS
aabbcc
Your satellite tracking list
Your tracking list is empty




NASA's NSSDC Master Catalog

Two Line Element Set (TLE):
1  3417U 68069D   19107.40340414 -.00000051 +00000-0 -51960-4 0  9995
2  3417 101.9468 042.3698 0065042 229.9353 247.1706 12.39706540598431
Source of the keplerian elements: AFSPC